CST,Max TemperatureF,Mean TemperatureF,Min TemperatureF,Max Dew PointF,MeanDew PointF,Min DewpointF,Max Humidity, Mean Humidity, Min Humidity, Max Sea Level PressureIn, Mean Sea Level PressureIn, Min Sea Level PressureIn, Max VisibilityMiles, Mean VisibilityMiles, Min VisibilityMiles, Max Wind SpeedMPH, Mean Wind SpeedMPH, Max Gust SpeedMPH,PrecipitationIn, CloudCover, Events, WindDirDegrees
2012-12-1,83,74,64,65,61,58,93,70,46,30.10,30.03,29.96,10,9,5,24,13,32,0.00,5,,180
2012-12-2,82,73,63,65,61,58,93,70,46,30.14,30.06,30.01,10,10,7,25,13,33,0.00,3,,180
2012-12-3,82,71,59,63,60,57,93,69,45,30.05,30.00,29.92,10,10,8,24,13,29,0.00,3,,187
2012-12-4,74,62,49,59,46,29,93,65,37,30.25,30.13,30.01,10,10,7,20,10,25,0.00,1,,320
2012-12-5,71,56,41,47,38,27,86,59,31,30.27,30.16,30.05,10,10,9,14,7,16,0.00,0,,15
2012-12-6,71,61,51,54,52,47,93,69,44,30.05,29.94,29.82,10,6,0,18,12,23,0.00,5,Fog,171
2012-12-7,71,62,53,59,56,53,100,83,66,29.91,29.84,29.79,10,7,3,15,7,20,0.00,4,,206
2012-12-8,74,64,54,62,54,48,100,79,57,29.92,29.84,29.78,9,6,0,14,5,17,0.00,5,,8
2012-12-9,81,65,49,66,55,30,93,69,45,30.00,29.85,29.78,10,5,1,25,12,33,0.00,5,,226
2012-12-10,49,39,28,22,16,11,56,42,28,30.19,30.13,30.03,10,10,10,29,15,38,0.00,3,,338
2012-12-11,53,35,17,20,13,8,84,52,19,30.25,30.19,30.13,10,10,10,10,3,13,0.00,0,,352
2012-12-12,59,39,18,23,18,10,77,51,24,30.35,30.27,30.21,10,10,10,13,6,17,0.00,0,,164
2012-12-13,67,49,30,37,27,21,63,46,29,30.32,30.24,30.17,10,10,10,18,10,22,0.00,0,,154
2012-12-14,64,59,53,61,48,28,93,66,38,30.19,30.02,29.86,10,9,3,21,12,25,0.03,8,Rain,149
2012-12-15,70,63,56,64,53,40,100,67,33,29.98,29.89,29.84,10,8,1,17,6,21,0.29,4,Rain,222
2012-12-16,74,60,46,50,45,36,80,54,27,29.85,29.80,29.72,10,10,7,14,5,16,T,3,,239
2012-12-17,69,54,38,39,31,20,82,49,15,29.95,29.87,29.81,10,10,6,22,7,29,0.00,0,,262
2012-12-18,83,59,34,52,38,30,76,47,17,29.89,29.82,29.75,10,10,9,17,8,21,0.00,0,,182
2012-12-19,81,71,61,64,56,16,93,59,24,29.85,29.72,29.57,10,7,1,33,19,49,0.00,6,Thunderstorm,192
2012-12-20,65,45,25,22,11,-2,48,30,11,30.45,30.29,29.91,10,9,2,37,17,49,0.00,1,,316
2012-12-21,66,43,19,23,15,8,77,44,11,30.51,30.41,30.34,10,10,10,13,7,16,0.00,0,,203
2012-12-22,68,50,32,49,34,14,67,50,32,30.33,30.21,30.05,10,10,10,26,12,33,0.00,1,,190
2012-12-23,73,61,48,56,48,42,93,64,35,30.02,29.92,29.84,10,10,10,18,9,24,0.00,1,,207
2012-12-24,61,49,36,30,27,23,71,47,23,30.04,29.91,29.78,10,8,6,14,6,20,0.00,1,,7
2012-12-25,52,41,29,48,35,20,89,67,44,30.16,29.80,29.53,10,6,1,32,17,44,0.32,8,Rain-Thunderstorm,335
2012-12-26,38,31,23,24,20,15,84,68,52,30.32,30.22,30.16,10,10,7,24,10,31,0.00,3,,344
2012-12-27,45,35,25,43,34,22,100,79,58,30.13,29.97,29.87,9,5,1,13,5,15,T,6,Rain,119
2012-12-28,48,39,29,43,38,25,100,85,70,30.25,29.97,29.83,7,4,1,22,10,28,0.06,7,Rain,343
2012-12-29,52,38,24,25,22,20,88,59,30,30.47,30.40,30.26,10,10,7,14,5,24,0.00,0,,359
2012-12-30,48,35,21,27,23,19,92,64,36,30.48,30.36,30.23,10,10,6,15,7,18,0.00,2,,136
2012-12-31,50,46,41,48,42,27,100,77,53,30.21,30.06,29.97,10,2,1,23,5,28,0.11,8,Rain,112